Date String (YYYY-MM-DD hh:mm:ss) UTC,Instrument flags,Ambient pressure (hPa),Sample flow (lpm),Bypass flow (lpm),Sample temperature (°C),Ambient temperature (°C),ASC tube jacket temperature (°C),LED temperature (°C),Box temperature (°C),Sample RH (%),Span deviation,Mass concentration (μg/m³),Mass concentration (μg/m³),Mass concentration (μg/m³)
DateTimeUTC,F1_M11,P_M11,Q1_M11,Q2_M11,T1_M11,T2_M11,T3_M11,T4_M11,T5_M11,U1_M11,ZSPAN_M11,X0_M11,X2_M11,X1_M11
2022-03-19 06:00:00,,0826.3,5.02,0.00,23.7,22.7,00.0,32.9,25.4,07.0,0000.0,0004.32,0002.38,0001.49
2022-03-19 06:01:00,,0826.3,4.99,0.00,23.7,22.6,00.0,32.8,25.3,07.0,0000.0,0004.16,0002.30,0001.45
2022-03-19 06:02:00,,0826.4,5.01,0.00,23.7,22.6,00.0,32.8,25.3,07.2,0000.0,0004.18,0002.30,0001.41
2022-03-19 06:03:00,,0826.4,5.00,0.00,23.6,22.5,00.0,32.8,25.2,07.2,0000.0,0004.04,0002.28,0001.38
2022-03-19 06:04:00,,0826.3,4.99,0.00,23.6,22.5,00.0,32.8,25.2,07.1,0000.0,0003.88,0002.28,0001.34
2022-03-19 06:05:00,,0826.3,5.01,0.00,23.5,22.5,00.0,32.7,25.2,07.1,0000.0,0003.85,0002.26,0001.33
2022-03-19 06:06:00,,0826.3,5.01,0.00,23.5,22.5,00.0,32.7,25.2,07.1,0000.0,0004.08,0002.29,0001.33
2022-03-19 06:07:00,,0826.2,4.99,0.00,23.5,22.4,00.0,32.7,25.1,07.2,0000.0,0004.17,0002.33,0001.34
2022-03-19 06:08:00,,0826.2,4.99,0.00,23.5,22.4,00.0,32.7,25.1,07.2,0000.0,0004.32,0002.34,0001.34
2022-03-19 06:09:00,,0826.2,5.01,0.00,23.4,22.4,00.0,32.6,25.1,07.2,0000.0,0004.31,0002.31,0001.34
2022-03-19 06:10:00,,0826.3,5.00,0.00,23.5,22.4,00.0,32.6,25.1,07.2,0000.0,0004.43,0002.38,0001.36
2022-03-19 06:11:00,,0826.4,5.00,0.00,23.4,22.5,00.0,32.6,25.1,07.2,0000.0,0004.60,0002.42,0001.36
2022-03-19 06:12:00,,0826.2,4.99,0.00,23.4,22.5,00.0,32.6,25.1,07.2,0000.0,0004.68,0002.46,0001.36
2022-03-19 06:13:00,,0826.2,5.00,0.00,23.5,22.5,00.0,32.6,25.1,07.2,0000.0,0004.54,0002.41,0001.35
2022-03-19 06:14:00,,0826.1,5.00,0.00,23.5,22.6,00.0,32.6,25.1,07.3,0000.0,0004.38,0002.34,0001.35
2022-03-19 06:15:00,,0826.2,5.00,0.00,23.5,22.6,00.0,32.5,25.1,07.3,0000.0,0004.18,0002.22,0001.34
2022-03-19 06:16:00,,0826.1,5.00,0.00,23.5,22.5,00.0,32.5,25.1,07.3,0000.0,0004.26,0002.19,0001.34
2022-03-19 06:17:00,,0826.1,5.01,0.00,23.5,22.5,00.0,32.5,25.1,07.2,0000.0,0004.21,0002.18,0001.34
2022-03-19 06:18:00,,0826.1,5.01,0.00,23.5,22.5,00.0,32.5,25.1,07.1,0000.0,0004.27,0002.19,0001.33
2022-03-19 06:19:00,,0826.1,4.99,0.00,23.4,22.5,00.0,32.5,25.1,07.1,0000.0,0004.10,0002.19,0001.33
2022-03-19 06:20:00,,0826.1,4.99,0.00,23.4,22.4,00.0,32.5,25.0,07.1,0000.0,0004.11,0002.20,0001.34
2022-03-19 06:21:00,,0826.1,4.99,0.00,23.3,22.3,00.0,32.5,25.0,07.1,0000.0,0004.14,0002.21,0001.34
2022-03-19 06:22:00,,0826.1,5.01,0.00,23.3,22.3,00.0,32.5,24.9,07.0,0000.0,0004.12,0002.21,0001.33
2022-03-19 06:23:00,,0826.1,4.99,0.00,23.3,22.2,00.0,32.4,24.9,07.0,0000.0,0004.61,0002.29,0001.35
2022-03-19 06:24:00,,0826.1,4.99,0.00,23.2,22.2,00.0,32.4,24.8,07.0,0000.0,0004.95,0002.37,0001.35
2022-03-19 06:25:00,,0826.1,4.99,0.00,23.2,22.2,00.0,32.4,24.9,07.1,0000.0,0005.12,0002.44,0001.36
2022-03-19 06:26:00,,0826.1,5.01,0.00,23.2,22.2,00.0,32.4,24.9,07.1,0000.0,0005.12,0002.45,0001.36
2022-03-19 06:27:00,,0826.1,5.00,0.00,23.2,22.3,00.0,32.4,24.9,07.2,0000.0,0004.97,0002.43,0001.35
2022-03-19 06:28:00,,0826.1,5.00,0.00,23.2,22.3,00.0,32.3,24.9,07.4,0000.0,0004.82,0002.41,0001.35
2022-03-19 06:29:00,,0826.1,4.99,0.00,23.2,22.3,00.0,32.3,24.9,07.4,0000.0,0004.68,0002.34,0001.34
2022-03-19 06:30:00,,0826.1,5.01,0.00,23.2,22.4,00.0,32.3,25.0,07.3,0000.0,0004.73,0002.36,0001.34
2022-03-19 06:31:00,,0826.1,4.99,0.00,23.2,22.4,00.0,32.3,25.0,07.3,0000.0,0004.77,0002.39,0001.33
2022-03-19 06:32:00,,0826.1,5.00,0.00,23.2,22.4,00.0,32.3,25.0,07.3,0000.0,0004.68,0002.35,0001.34
2022-03-19 06:33:00,,0826.1,5.00,0.00,23.2,22.4,00.0,32.3,25.0,07.4,0000.0,0004.67,0002.37,0001.36
2022-03-19 06:34:00,,0826.1,5.01,0.00,23.3,22.4,00.0,32.3,25.0,07.8,0000.0,0004.33,0002.33,0001.37
2022-03-19 06:35:00,,0826.1,5.01,0.00,23.3,22.4,00.0,32.3,25.0,07.5,0000.0,0004.38,0002.28,0001.37
2022-03-19 06:36:00,,0826.1,5.00,0.00,23.3,22.4,00.0,32.3,25.0,07.6,0000.0,0004.35,0002.27,0001.37
2022-03-19 06:37:00,,0826.1,5.00,0.00,23.3,22.4,00.0,32.3,25.0,07.5,0000.0,0004.44,0002.32,0001.37
2022-03-19 06:38:00,,0826.1,5.00,0.00,23.3,22.4,00.0,32.3,25.0,07.6,0000.0,0004.38,0002.32,0001.39
2022-03-19 06:39:00,,0826.1,5.00,0.00,23.3,22.4,00.0,32.3,25.0,07.6,0000.0,0004.29,0002.28,0001.39
2022-03-19 06:40:00,,0826.2,5.00,0.00,23.3,22.4,00.0,32.3,25.0,07.5,0000.0,0004.31,0002.31,0001.41
2022-03-19 06:41:00,,0826.2,5.00,0.00,23.3,22.4,00.0,32.3,25.0,07.5,0000.0,0004.36,0002.34,0001.44
2022-03-19 06:42:00,,0826.2,5.00,0.00,23.3,22.4,00.0,32.3,25.0,07.5,0000.0,0004.47,0002.39,0001.47
2022-03-19 06:43:00,,0826.2,4.99,0.00,23.3,22.4,00.0,32.3,25.0,07.6,0000.0,0004.87,0002.50,0001.48
2022-03-19 06:44:00,,0826.1,5.01,0.00,23.3,22.4,00.0,32.3,25.0,07.8,0000.0,0005.52,0002.51,0001.49
2022-03-19 06:45:00,,0826.1,4.99,0.00,23.3,22.4,00.0,32.3,25.0,07.8,0000.0,0005.65,0002.56,0001.54
2022-03-19 06:46:00,,0826.1,5.00,0.00,23.3,22.4,00.0,32.3,25.0,07.7,0000.0,0005.50,0002.67,0001.59
2022-03-19 06:47:00,,0826.1,5.00,0.00,23.3,22.4,00.0,32.3,25.0,07.7,0000.0,0005.72,0002.80,0001.66
2022-03-19 06:48:00,,0826.1,5.02,0.00,23.3,22.4,00.0,32.3,25.0,07.7,0000.0,0005.97,0002.91,0001.74
2022-03-19 06:49:00,,0826.1,5.00,0.00,23.3,22.4,00.0,32.3,25.0,07.7,0000.0,0006.17,0003.04,0001.81
2022-03-19 06:50:00,,0826.1,5.00,0.00,23.3,22.4,00.0,32.3,24.9,07.7,0000.0,0006.38,0003.14,0001.88
2022-03-19 06:51:00,,0826.1,5.01,0.00,23.3,22.4,00.0,32.3,25.0,07.7,0000.0,0006.60,0003.23,0001.96
2022-03-19 06:52:00,,0826.1,5.01,0.00,23.3,22.4,00.0,32.3,25.0,07.7,0000.0,0006.77,0003.28,0002.02
2022-03-19 06:53:00,,0826.1,5.00,0.00,23.3,22.4,00.0,32.3,25.0,07.7,0000.0,0006.74,0003.30,0002.09
2022-03-19 06:54:00,,0826.1,5.00,0.00,23.3,22.4,00.0,32.3,25.0,07.7,0000.0,0006.51,0003.31,0002.16
2022-03-19 06:55:00,,0826.1,5.00,0.00,23.3,22.4,00.0,32.3,25.0,07.7,0000.0,0005.90,0003.34,0002.21
2022-03-19 06:56:00,,0826.1,5.00,0.00,23.3,22.4,00.0,32.3,25.0,07.7,0000.0,0005.84,0003.35,0002.24
2022-03-19 06:57:00,,0826.1,5.01,0.00,23.3,22.4,00.0,32.3,25.0,07.7,0000.0,0005.89,0003.36,0002.25
2022-03-19 06:58:00,,0826.1,5.00,0.00,23.3,22.3,00.0,32.3,25.0,07.7,0000.0,0005.82,0003.35,0002.26
2022-03-19 06:59:00,,0826.1,5.00,0.00,23.3,22.3,00.0,32.3,25.0,07.7,0000.0,0005.86,0003.36,0002.28
